AGROMETEOROLOŠKI PORTAL
Vinorodna pokrajina

Temelj dobrega kmetovanja.

Pregled podatkov za lokacijo ŠKOCJAN ARSO, meteorološka postaja 136

Pregled senzorjev na lokaciji

ID Ime Zadnja
vrednost
Datum in čas
meritve
(lokalni čas)
Tip
senzorja
6045 Zračni tlak (hPa) 962 hPa 18.4.2024 19:00 ARSO
2842 Sončno sevanje (W/m2) 68 W/m2 18.4.2024 19:00 ARSO
2848 Padavine (mm) 0 mm 18.4.2024 19:00 ARSO
2856 Relativna zračna vlaga (2 m) (% RH) 59 % RH 18.4.2024 19:00 ARSO
2855 Temperatura (2 m) (°C) 8,2 °C 18.4.2024 19:00 ARSO
2860 Smer vetra (2 m) (°) 92 ° 18.4.2024 19:00 ARSO
2861 Hitrost vetra (2 m) (km/h) 14 km/h 18.4.2024 19:00 ARSO

Pregled podatkov zadnjih 24 ur

Zap.
št.
Datum in čas
(lokalni čas)
ŠKOCJAN ARSO
Zračni
tlak
Sončno
sevanje
Padavine Relativna
zračna
vlaga
(2
m)
Temperatura
(2
m)
Smer
vetra
(2
m)
Hitrost
vetra
(2
m)
1 18.4.2024 19:00 962,2 68 0 59 8,2 92 14
2 18.4.2024 18:30 962,2 132 0 62 8,5 91 9
3 18.4.2024 18:00 962,1 202 0 68 7,8 60 10
4 18.4.2024 17:30 962 117 0 68 7,7 39 15
5 18.4.2024 17:00 961,4 165 0 52 10,1 50 17
6 18.4.2024 16:30 961,2 298 0 50 10,5 102 12
7 18.4.2024 16:00 961,2 302 0 53 10,4 113 13
8 18.4.2024 15:30 960,8 428 0 49 11,6 93 15
9 18.4.2024 15:00 960,4 679 0 41 12,5 80 13
10 18.4.2024 14:30 960,3 737 0 43 12,2 61 17
11 18.4.2024 14:00 960,1 806 0 47 12,1 39 20
12 18.4.2024 13:30 960 647 0 50 11,5 47 17
13 18.4.2024 13:00 960 309 0 48 11,2 37 14
14 18.4.2024 12:30 960,1 429 0 45 11,5 56 13
15 18.4.2024 12:00 960,2 576 0 46 12,1 68 10
16 18.4.2024 11:30 960,1 477 0 49 11,1 82 11
17 18.4.2024 11:00 959,9 393 0 50 10,7 82 9
18 18.4.2024 10:30 959,8 324 0 55 10,3 103 8
19 18.4.2024 10:00 959,7 433 0 63 9,6 114 4
20 18.4.2024 09:30 959,6 381 0 71 8,2 112 4
21 18.4.2024 09:00 959,5 330 0 84 6,3 128 2
22 18.4.2024 08:30 959,5 197 0 86 5,1 138 1
23 18.4.2024 08:00 959,4 231 0 92 4,2 73 1
24 18.4.2024 07:30 959,1 158 0 97 2,5 192 1
25 18.4.2024 07:00 958,8 66 0 98 1 339 1
26 18.4.2024 06:30 958,5 6 0 97 0,3 187 3
27 18.4.2024 06:00 958,5 0 0,2 97 0,2 242 4
28 18.4.2024 05:30 958,4 0 0 97 0,3 209 3
29 18.4.2024 05:00 958,3 0 0 97 0,6 55 2
30 18.4.2024 04:30 958,4 0 0 97 0,9 60 1
31 18.4.2024 04:00 958,3 0 0 97 1 185 1
32 18.4.2024 03:30 958,3 0 0 97 0,6 209 1
33 18.4.2024 03:00 958,4 0 0 97 1 58 1
34 18.4.2024 02:30 958,5 0 0 96 1 59 1
35 18.4.2024 02:00 958,6 0 0 96 1,3 210 2
36 18.4.2024 01:30 958,5 0 0 96 1,4 88 3
37 18.4.2024 01:00 958,3 0 0 95 1,8 49 3
38 18.4.2024 00:30 958,1 0 0 95 2,3 53 3
39 18.4.2024 00:00 957,9 0 0 95 2,2 111 3
40 17.4.2024 23:30 957,8 0 0 94 2,6 174 2
41 17.4.2024 23:00 957,8 0 0 93 3,1 235 0
42 17.4.2024 22:30 957,6 0 0 93 3,6 224 2
43 17.4.2024 22:00 957,6 0 0 92 4,1 224 1
44 17.4.2024 21:30 957,5 0 0 90 4,6 47 1
45 17.4.2024 21:00 957,1 0 0 88 5,4 246 1
46 17.4.2024 20:30 956,8 0 0 84 6,2 226 1